Latest Weather Observations for Braidwood

IDN60801

Issued at 8:03 am EDT Friday 12 February 2016 (issued every 30 minutes, with the page automatically refreshed every 10 minutes)

About weather observations | Map of weather stations | Latest weather observations for NSW | Other Formats
Station Details ID: 069132 Name: BRAIDWOOD RACECOURSE AWS Lat: -35.43 Lon: 149.78 Height: 665.2 m
Data from the previous 72 hours. | See also: Recent months at Braidwood
Date/Time
EDT
Temp
°C
App
Temp
°C
Dew
Point
Rel
Hum
%
Delta-T
°C
Wind Press
QNH
hPa
Press
MSL
hPa
Rain
since 9 am
mm
Dir
 
Spd
km/h
Gust
km/h
Spd
kts
Gust
kts
12/08:00am 16.8 18.7 15.8 94 0.6 CALM 0 0 0 0 1019.2 1016.5 0.0
12/07:30am 16.1 17.8 15.3 95 0.5 CALM 0 0 0 0 1019.1 1016.4 0.0
12/07:00am 15.6 17.2 14.8 95 0.5 CALM 0 0 0 0 1018.6 1015.9 0.0
12/06:30am 15.4 16.9 14.6 95 0.5 CALM 0 0 0 0 1018.4 1015.7 0.0
12/06:00am 15.2 16.7 14.6 96 0.4 CALM 0 0 0 0 1018.1 1015.4 0.0
12/05:30am 14.6 15.8 13.8 95 0.5 CALM 0 0 0 0 1017.9 1015.2 0.0
12/05:00am 15.3 16.7 14.5 95 0.5 CALM 0 0 0 0 1017.6 1014.9 0.0
12/04:30am 15.8 17.5 15.2 96 0.4 CALM 0 0 0 0 1017.5 1014.7 0.0
12/04:00am 15.7 17.4 15.1 96 0.4 CALM 0 0 0 0 1017.5 1014.7 0.0
12/03:30am 15.6 17.2 15.0 96 0.4 CALM 0 0 0 0 1017.7 1015.0 0.0
12/03:00am 15.4 17.0 14.8 96 0.4 CALM 0 0 0 0 1017.9 1015.2 0.0
12/02:30am 15.5 17.0 14.7 95 0.5 CALM 0 0 0 0 1017.9 1015.2 0.0
12/02:00am 15.7 16.2 14.9 95 0.5 SE 6 7 3 4 1018.1 1015.4 0.0
12/01:30am 15.4 16.8 14.4 94 0.6 CALM 0 0 0 0 1018.5 1015.8 0.0
12/01:00am 15.9 17.5 14.9 94 0.6 CALM 0 0 0 0 1018.6 1015.9 0.0
12/12:30am 16.6 18.4 15.6 94 0.6 CALM 0 0 0 0 1018.7 1016.0 0.0
12/12:00am 16.4 17.8 15.3 93 0.7 SSW 2 7 1 4 1018.8 1016.2 0.0
 
Date/Time
EDT
Temp
°C
App
Temp
°C
Dew
Point
Rel
Hum
%
Delta-T
°C
Wind Press
QNH
hPa
Press
MSL
hPa
Rain
since 9 am
mm
Dir
 
Spd
km/h
Gust
km/h
Spd
kts
Gust
kts
11/11:30pm 17.3 19.2 15.8 91 0.9 CALM 0 0 0 0 1018.8 1016.2 0.0
11/11:00pm 17.7 19.0 16.2 91 0.9 NE 4 6 2 3 1019.4 1016.7 0.0
11/10:30pm 18.1 19.5 16.4 90 1.0 SE 4 6 2 3 1019.6 1016.9 0.0
11/10:00pm 17.9 18.7 16.4 91 0.9 SE 7 11 4 6 1019.1 1016.4 0.0
11/09:30pm 17.8 17.8 16.3 91 0.9 SSE 11 13 6 7 1018.5 1015.8 0.0
11/09:00pm 18.0 19.0 16.3 90 1.0 ENE 6 9 3 5 1018.0 1015.3 0.0
11/08:30pm 18.4 18.9 16.6 89 1.1 ESE 9 13 5 7 1017.9 1015.2 0.0
11/08:00pm 19.0 19.8 16.4 85 1.6 SSE 7 11 4 6 1018.1 1015.4 0.0
11/07:30pm 19.1 19.5 16.3 84 1.7 SE 9 13 5 7 1017.8 1015.1 0.0
11/07:00pm 18.8 19.1 15.9 83 1.8 E 9 13 5 7 1017.2 1014.5 0.0
11/06:30pm 19.2 18.1 16.4 84 1.7 E 17 22 9 12 1016.3 1013.6 0.0
11/06:00pm 19.5 17.7 16.0 80 2.1 ESE 20 28 11 15 1015.8 1013.0 0.0
11/05:30pm 20.5 19.8 16.3 77 2.6 ESE 15 19 8 10 1016.7 1014.0 0.0
11/05:00pm 22.3 21.1 17.0 72 3.3 ESE 19 28 10 15 1016.1 1013.3 0.0
11/04:30pm 22.5 21.3 17.4 73 3.2 SE 20 28 11 15 1016.4 1013.7 0.0
11/04:00pm 22.3 21.0 16.8 71 3.5 SE 19 24 10 13 1016.2 1013.5 0.0
11/03:30pm 23.0 21.6 17.0 69 3.8 ESE 20 28 11 15 1016.3 1013.6 0.0
11/03:00pm 23.8 23.2 17.5 68 4.0 ESE 17 24 9 13 1016.6 1013.9 0.0
11/02:30pm 23.3 22.3 16.6 66 4.2 ESE 17 26 9 14 1016.9 1014.2 0.0
11/02:00pm 23.3 23.1 16.6 66 4.2 SE 13 17 7 9 1017.2 1014.5 0.0
11/01:30pm 23.0 22.5 15.8 64 4.5 ESE 13 20 7 11 1017.5 1014.7 0.0
11/01:00pm 22.4 22.1 16.4 69 3.7 SE 13 19 7 10 1017.5 1014.7 0.0
11/12:30pm 22.4 22.4 16.2 68 3.9 SE 11 17 6 9 1017.6 1014.9 0.0
11/12:00pm 21.5 21.4 14.9 66 4.0 SE 9 17 5 9 1017.9 1015.2 0.0
11/11:30am 21.3 21.2 14.9 67 3.9 E 9 15 5 8 1018.1 1015.4 0.0
11/11:00am 20.7 20.5 14.8 69 3.6 SE 9 13 5 7 1018.1 1015.4 0.0
11/10:30am 20.6 20.6 16.2 76 2.7 ESE 11 17 6 9 1018.0 1015.3 0.0
11/10:00am 20.1 19.5 15.7 76 2.7 ESE 13 17 7 9 1018.0 1015.3 0.0
11/09:30am 19.8 19.3 15.9 78 2.4 ESE 13 19 7 10 1018.0 1015.3 0.0
11/09:00am 19.6 19.1 15.9 79 2.3 ESE 13 19 7 10 1018.0 1015.3 0.2
11/08:30am 18.6 18.7 16.4 87 1.4 SE 11 17 6 9 1017.8 1015.1 0.2
11/08:00am 17.9 19.0 17.1 95 0.5 SSE 7 11 4 6 1017.6 1014.9 0.2
11/07:30am 17.3 18.3 16.3 94 0.6 SSE 6 9 3 5 1017.2 1014.5 0.2
11/07:00am 17.0 17.7 16.0 94 0.6 SSE 7 9 4 5 1016.9 1014.2 0.2
11/06:30am 17.2 18.1 16.1 93 0.7 SSE 6 7 3 4 1016.6 1013.9 0.2
11/06:00am 17.7 18.6 16.6 93 0.7 S 7 9 4 5 1016.5 1013.8 0.2
11/05:30am 17.8 18.9 16.5 92 0.8 S 6 7 3 4 1016.2 1013.5 0.2
11/05:00am 17.7 18.1 16.4 92 0.8 S 9 11 5 6 1015.9 1013.1 0.2
11/04:30am 17.7 18.6 16.6 93 0.7 SSE 7 11 4 6 1015.6 1012.9 0.2
11/04:00am 17.5 17.9 16.4 93 0.7 S 9 13 5 7 1015.3 1012.6 0.2
11/03:30am 17.1 17.4 16.1 94 0.6 S 9 13 5 7 1015.5 1012.8 0.2
11/03:00am 17.0 17.3 16.0 94 0.6 S 9 13 5 7 1015.9 1013.1 0.2
11/02:30am 17.1 17.4 16.1 94 0.6 S 9 15 5 8 1016.3 1013.6 0.2
11/02:00am 17.0 16.9 16.0 94 0.6 S 11 13 6 7 1016.3 1013.6 0.2
11/01:30am 16.9 16.7 15.8 93 0.7 S 11 15 6 8 1016.6 1013.9 0.2
11/01:00am 17.0 16.5 15.9 93 0.7 S 13 19 7 10 1016.8 1014.1 0.2
11/12:30am 17.3 16.8 16.0 92 0.8 S 13 15 7 8 1016.9 1014.2 0.2
11/12:00am 17.5 17.4 16.0 91 0.9 S 11 15 6 8 1017.1 1014.4 0.2
 
Date/Time
EDT
Temp
°C
App
Temp
°C
Dew
Point
Rel
Hum
%
Delta-T
°C
Wind Press
QNH
hPa
Press
MSL
hPa
Rain
since 9 am
mm
Dir
 
Spd
km/h
Gust
km/h
Spd
kts
Gust
kts
10/11:30pm 17.4 16.6 16.1 92 0.8 SSE 15 20 8 11 1017.0 1014.3 0.2
10/11:00pm 17.5 16.4 16.4 93 0.7 S 17 22 9 12 1017.1 1014.4 0.2
10/10:30pm 17.7 17.5 16.6 93 0.7 S 13 19 7 10 1017.1 1014.4 0.2
10/10:00pm 17.9 18.0 16.6 92 0.8 S 11 17 6 9 1016.9 1014.2 0.2
10/09:30pm 18.1 17.6 16.8 92 0.8 S 15 20 8 11 1016.7 1014.0 0.2
10/09:00pm 18.4 18.5 16.6 89 1.1 S 11 19 6 10 1016.5 1013.8 0.2
10/08:30pm 18.9 18.9 16.3 85 1.6 S 11 15 6 8 1016.2 1013.5 0.2
10/08:00pm 19.9 20.3 16.3 80 2.2 SSW 9 13 5 7 1016.0 1013.2 0.2
10/07:30pm 22.0 21.2 17.2 74 3.0 ESE 17 26 9 14 1015.1 1012.4 0.2
10/07:00pm 23.5 21.6 16.8 66 4.2 SSE 22 32 12 17 1014.7 1011.9 0.2
10/06:30pm 23.6 20.4 17.3 67 4.0 SSW 30 43 16 23 1014.7 1011.9 0.2
10/06:00pm 25.0 23.4 17.5 63 4.8 ESE 22 35 12 19 1013.1 1010.3 0.2
10/05:30pm 28.3 28.1 13.0 39 9.3 NE 6 11 3 6 1012.7 1009.9 0.2
10/05:00pm 29.2 29.0 11.7 34 10.4 NE 4 9 2 5 1012.9 1010.1 0.2
10/04:30pm 30.0 29.7 10.0 29 11.6 NNW 2 6 1 3 1013.1 1010.3 0.2
10/04:00pm 29.0 28.7 8.7 28 11.5 CALM 0 0 0 0 1013.3 1010.5 0.2
10/03:30pm 28.7 27.5 9.4 30 11.1 SW 6 9 3 5 1013.6 1010.9 0.2
10/03:00pm 28.8 26.8 10.0 31 10.9 WNW 11 33 6 18 1014.0 1011.3 0.2
10/02:30pm 28.6 26.9 11.2 34 10.3 NW 11 20 6 11 1014.4 1011.6 0.2
10/02:00pm 28.6 26.8 12.1 36 9.9 NW 13 20 7 11 1014.6 1011.8 0.2
10/01:30pm 28.4 27.0 13.5 40 9.1 NW 13 20 7 11 1015.0 1012.3 0.0
10/01:00pm 28.1 27.9 14.7 44 8.3 NNW 9 19 5 10 1015.3 1012.6 0.0
10/12:30pm 27.7 27.9 14.7 45 8.1 NNW 7 20 4 11 1015.9 1013.1 0.0
10/12:00pm 27.5 27.3 14.8 45 7.9 NW 9 17 5 9 1016.2 1013.5 0.0
10/11:30am 26.5 25.6 13.6 45 7.8 NW 11 17 6 9 1016.6 1013.9 0.0
10/11:00am 25.7 25.7 14.2 49 7.0 NNW 7 17 4 9 1016.8 1014.1 0.0
10/10:30am 23.7 24.6 16.0 62 4.8 NNW 6 11 3 6 1017.1 1014.4 0.0
10/10:00am 21.2 22.4 16.0 72 3.2 N 4 11 2 6 1017.5 1014.7 0.0
10/09:30am 18.8 20.8 16.0 84 1.7 CALM 0 4 0 2 1017.8 1015.1 0.0
10/09:00am 15.8 17.5 15.2 96 0.4 CALM 0 0 0 0 1018.0 1015.3 0.0
10/08:30am 14.7 16.0 14.1 96 0.3 CALM 0 0 0 0 1018.0 1015.3 0.0
10/08:00am 14.2 15.3 13.6 96 0.3 CALM 0 0 0 0 1018.0 1015.3 0.0
10/07:30am 14.0 14.7 13.4 96 0.3 NNW 2 6 1 3 1017.8 1015.1 0.0
10/07:00am 13.8 14.4 13.2 96 0.3 N 2 11 1 6 1017.7 1015.0 0.0
10/06:30am 13.8 13.7 13.2 96 0.3 NNE 6 9 3 5 1017.6 1014.9 0.0
10/06:00am 13.9 14.6 13.3 96 0.3 N 2 6 1 3 1017.6 1014.9 0.0
10/05:30am 13.9 14.2 13.4 97 0.3 N 4 9 2 5 1017.5 1014.7 0.0
10/05:00am 13.0 13.8 12.4 96 0.3 CALM 0 0 0 0 1017.5 1014.7 0.0
10/04:30am 12.1 12.6 11.5 96 0.3 CALM 0 0 0 0 1017.6 1014.9 0.0
10/04:00am 11.9 12.3 11.3 96 0.3 CALM 0 0 0 0 1017.6 1014.9 0.0
10/03:30am 11.9 12.3 11.1 95 0.4 CALM 0 0 0 0 1017.8 1015.1 0.0
10/03:00am 11.6 11.8 10.7 94 0.5 CALM 0 0 0 0 1018.1 1015.4 0.0
10/02:30am 12.6 13.2 11.8 95 0.4 CALM 0 0 0 0 1018.4 1015.7 0.0
10/02:00am 12.8 13.4 12.0 95 0.4 CALM 0 0 0 0 1018.8 1016.2 0.0
10/01:30am 12.8 13.4 12.0 95 0.4 CALM 0 0 0 0 1019.2 1016.5 0.0
10/01:00am 13.4 14.2 12.5 94 0.5 CALM 0 0 0 0 1019.6 1016.9 0.0
10/12:30am 13.5 14.2 12.2 92 0.7 CALM 0 0 0 0 1020.0 1017.3 0.0
10/12:00am 14.1 15.0 12.8 92 0.7 CALM 0 0 0 0 1020.4 1017.8 0.0
 
Date/Time
EDT
Temp
°C
App
Temp
°C
Dew
Point
Rel
Hum
%
Delta-T
°C
Wind Press
QNH
hPa
Press
MSL
hPa
Rain
since 9 am
mm
Dir
 
Spd
km/h
Gust
km/h
Spd
kts
Gust
kts
09/11:30pm 14.7 15.8 13.6 93 0.6 CALM 0 0 0 0 1020.7 1018.0 0.0
09/11:00pm 14.9 16.0 13.6 92 0.7 CALM 0 0 0 0 1021.0 1018.3 0.0
09/10:30pm 15.0 16.1 13.5 91 0.9 CALM 0 0 0 0 1021.3 1018.6 0.0
09/10:00pm 15.4 16.6 13.8 90 0.9 CALM 0 0 0 0 1021.4 1018.7 0.0
09/09:30pm 15.9 17.2 14.1 89 1.1 CALM 0 0 0 0 1021.3 1018.6 0.0
09/09:00pm 16.2 16.5 14.4 89 1.1 SE 6 7 3 4 1021.0 1018.3 0.0
09/08:30pm 16.3 15.9 14.0 86 1.3 SE 9 15 5 8 1020.9 1018.2 0.0
09/08:00pm 16.9 16.1 14.0 83 1.7 ESE 11 17 6 9 1020.9 1018.2 0.0
09/07:30pm 18.2 17.1 14.3 78 2.3 ESE 13 19 7 10 1020.6 1017.9 0.0
09/07:00pm 19.2 17.5 14.7 75 2.7 ESE 17 22 9 12 1020.3 1017.7 0.0
09/06:30pm 20.2 18.3 15.2 73 3.0 SE 19 24 10 13 1020.0 1017.3 0.0
09/06:00pm 21.1 19.3 15.4 70 3.5 SE 19 26 10 14 1020.0 1017.3 0.0
09/05:30pm 21.9 20.0 15.3 66 4.0 ESE 19 22 10 12 1019.9 1017.2 0.0
09/05:00pm 22.9 21.4 15.2 62 4.7 ESE 17 20 9 11 1020.0 1017.3 0.0
09/04:30pm 23.2 22.5 15.3 61 4.9 E 13 22 7 12 1020.2 1017.6 0.0
09/04:00pm 23.4 22.8 14.7 58 5.3 E 11 19 6 10 1020.6 1017.9 0.0
09/03:30pm 23.7 23.6 16.0 62 4.8 ESE 11 20 6 11 1020.8 1018.1 0.0
09/03:00pm 23.3 22.7 13.5 54 5.8 SE 9 17 5 9 1021.2 1018.5 0.0
09/02:30pm 23.3 23.2 13.8 55 5.7 E 7 15 4 8 1021.5 1018.9 0.0
09/02:00pm 22.7 22.2 12.6 53 5.9 E 7 20 4 11 1021.8 1019.2 0.0
09/01:30pm 22.4 21.9 12.6 54 5.8 E 7 13 4 7 1022.3 1019.6 0.0
09/01:00pm 22.3 22.6 13.4 57 5.3 E 4 9 2 5 1022.5 1019.8 0.0
09/12:30pm 21.4 21.8 13.8 62 4.5 SSE 4 11 2 6 1022.9 1020.3 0.0
09/12:00pm 21.2 21.1 13.4 61 4.6 ESE 6 11 3 6 1023.0 1020.4 0.0
09/11:30am 20.5 20.7 13.0 62 4.4 SE 4 9 2 5 1023.4 1020.8 0.0
09/11:00am 19.8 20.5 13.3 66 3.8 SE 2 9 1 5 1023.6 1021.0 0.0
09/10:30am 19.4 19.3 13.8 70 3.3 ESE 7 13 4 7 1023.6 1021.0 0.0
09/10:00am 18.6 18.1 13.7 73 2.9 E 9 13 5 7 1023.6 1021.0 0.0
09/09:30am 16.7 17.5 13.8 83 1.7 ESE 2 13 1 7 1023.8 1021.1 0.0
09/09:00am 15.9 16.9 15.3 96 0.4 SSE 4 7 2 4 1023.8 1021.1 0.0
09/08:30am 15.7 16.1 15.2 97 0.3 SE 7 9 4 5 1023.4 1020.8 0.0

Other Formats:

Comma delimited format used in spreadsheet applications
http://www.bom.gov.au/fwo/IDN60801/IDN60801.94927.axf

JavaScript Object Notation format (JSON) in row-major order
http://www.bom.gov.au/fwo/IDN60801/IDN60801.94927.json